Ortonville, MN

8:10 PM CDT on October 18, 2017 (GMT -0500)
Ortonville Municipal-Martinson

Weather History for KVVV - February, 2013

Change the Weather History Date:

Sunday, February 3, 2013

  Actual Average (KAQP) Record (KAQP)
Temperature  
Mean Temperature 11 °F -  
Max Temperature 14 °F 22 °F 42 °F (2005)
Min Temperature 8 °F 5 °F -18 °F (2004)
Degree Days  
Heating Degree Days 54    
Moisture  
Dew Point 6 °F    
Average Humidity 78    
Maximum Humidity 85    
Minimum Humidity 73    
Precipitation  
Precipitation 0.00 in - - ()
Sea Level Pressure  
Sea Level Pressure 30.01 in    
Wind  
Wind Speed 9 mph (North)    
Max Wind Speed 17 mph    
Max Gust Speed 25 mph    
Visibility 9 miles    
Events Snow    
Averages and records for this station are not official NWS values.
T = Trace of Precipitation, MM = Missing Value Source: NWS Daily Summary

Daily Weather History Graph

Daily Weather History Graph

Search for Another Location

Airport or City:

Trip Planner

Search our weather history database for the weather conditions in past years. The results will help you decide how hot, cold, wet, or windy it might be!

Date:

Astronomy

Feb. 03, 2013 Rise Set
Actual Time 7:43 AM CST 5:36 PM CST
Civil Twilight 7:12 AM CST 6:07 PM CST
Nautical Twilight 6:37 AM CST 6:42 PM CST
Astronomical Twilight 6:02 AM CST 7:17 PM CST
Moon 1:13 AM CST (2/3) 11:12 AM CST (2/3)
Length of Visible Light 10h 55m
Length of Day
9h 52m
Waning Gibbous, 48% of the Moon is Illuminated
Feb 3
Waning Gibbous
Feb 10
New
Feb 17
First Quarter
Feb 25
Full
Mar 4
Last Quarter

Hourly Weather History & Observations

Time (CST) Temp. Windchill Dew Point Humidity Pressure Visibility Wind Dir Wind Speed Gust Speed Precip Events Conditions
12:14 AM 10.4 °F -7.2 °F 5.0 °F 79% 30.09 in 10.0 mi NW 17.3 mph 25.3 mph N/A   Mostly Cloudy
12:34 AM 10.4 °F -7.2 °F 5.0 °F 79% 30.10 in 10.0 mi NW 17.3 mph 21.9 mph N/A   Scattered Clouds
12:54 AM 10.4 °F -4.8 °F 3.2 °F 73% 30.10 in 10.0 mi NW 12.7 mph 18.4 mph N/A   Clear
1:13 AM 8.6 °F -7.0 °F 3.2 °F 79% 30.09 in 10.0 mi NW 12.7 mph 21.9 mph N/A   Clear
1:34 AM 8.6 °F -7.0 °F 3.2 °F 79% 30.09 in 10.0 mi WNW 12.7 mph - N/A   Clear
1:54 AM 8.6 °F -6.3 °F 3.2 °F 79% 30.08 in 10.0 mi NNW 11.5 mph 16.1 mph N/A   Clear
2:14 AM 8.6 °F -7.0 °F 3.2 °F 79% 30.09 in 10.0 mi NW 12.7 mph - N/A   Scattered Clouds
2:34 AM 8.6 °F -5.5 °F 3.2 °F 79% 30.09 in 10.0 mi NW 10.4 mph 19.6 mph N/A   Scattered Clouds
2:54 AM 8.6 °F -1.3 °F 3.2 °F 79% 30.09 in 10.0 mi WNW 5.8 mph - N/A   Mostly Cloudy
3:14 AM 8.6 °F -2.6 °F 3.2 °F 79% 30.09 in 10.0 mi West 6.9 mph - N/A   Overcast
3:34 AM 8.6 °F 0.1 °F 3.2 °F 79% 30.08 in 10.0 mi WNW 4.6 mph - N/A   Overcast
3:54 AM 8.6 °F -2.6 °F 3.2 °F 79% 30.09 in 10.0 mi West 6.9 mph - N/A   Overcast
4:14 AM 10.4 °F 0.8 °F 3.2 °F 73% 30.08 in 10.0 mi West 5.8 mph - N/A   Overcast
4:34 AM 10.4 °F -4.1 °F 3.2 °F 73% 30.09 in 10.0 mi WNW 11.5 mph - N/A   Overcast
4:53 AM 10.4 °F 0.8 °F 3.2 °F 73% 30.07 in 10.0 mi WNW 5.8 mph - N/A   Mostly Cloudy
5:14 AM 10.4 °F -0.4 °F 3.2 °F 73% 30.07 in 10.0 mi WNW 6.9 mph - N/A   Overcast
5:34 AM 10.4 °F 2.2 °F 3.2 °F 73% 30.06 in 10.0 mi West 4.6 mph - N/A   Overcast
6:14 AM 10.4 °F -1.5 °F 3.2 °F 73% 30.07 in 10.0 mi WNW 8.1 mph - N/A   Overcast
6:34 AM 10.4 °F 0.8 °F 3.2 °F 73% 30.05 in 10.0 mi WNW 5.8 mph - N/A   Overcast
6:53 AM 10.4 °F 0.8 °F 3.2 °F 73% 30.06 in 10.0 mi WNW 5.8 mph - N/A   Overcast
7:14 AM 10.4 °F -1.5 °F 5.0 °F 79% 30.06 in 10.0 mi WNW 8.1 mph - N/A   Overcast
7:34 AM 12.2 °F 2.9 °F 5.0 °F 73% 30.06 in 10.0 mi WNW 5.8 mph - N/A   Overcast
7:54 AM 12.2 °F 4.3 °F 6.8 °F 79% 30.06 in 10.0 mi NW 4.6 mph - N/A   Overcast
8:14 AM 12.2 °F 4.3 °F 6.8 °F 79% 30.06 in 10.0 mi NW 4.6 mph - N/A   Overcast
8:33 AM 12.2 °F 1.7 °F 6.8 °F 79% 30.06 in 10.0 mi NNW 6.9 mph - N/A   Overcast
8:54 AM 12.2 °F 1.7 °F 6.8 °F 79% 30.06 in 10.0 mi NNW 6.9 mph - N/A   Overcast
9:14 AM 12.2 °F 6.1 °F 6.8 °F 79% 30.06 in 10.0 mi NNW 3.5 mph - N/A   Overcast
9:34 AM 12.2 °F 4.3 °F 6.8 °F 79% 30.06 in 10.0 mi North 4.6 mph - N/A   Overcast
9:54 AM 12.2 °F 2.9 °F 6.8 °F 79% 30.07 in 10.0 mi North 5.8 mph - N/A   Overcast
10:13 AM 12.2 °F 4.3 °F 6.8 °F 79% 30.07 in 10.0 mi North 4.6 mph - N/A   Overcast
10:34 AM 12.2 °F 6.1 °F 5.0 °F 73% 30.05 in 10.0 mi North 3.5 mph - N/A   Overcast
10:54 AM 12.2 °F 6.1 °F 5.0 °F 73% 30.05 in 10.0 mi North 3.5 mph - N/A   Overcast
11:13 AM 12.2 °F - 5.0 °F 73% 30.04 in 10.0 mi Calm Calm - N/A   Overcast
11:34 AM 12.2 °F - 6.8 °F 79% 30.04 in 10.0 mi Calm Calm - N/A   Overcast
11:54 AM 12.2 °F - 6.8 °F 79% 30.02 in 10.0 mi Calm Calm - N/A   Overcast
12:13 PM 12.2 °F 6.1 °F 6.8 °F 79% 30.01 in 10.0 mi East 3.5 mph - N/A   Overcast
12:34 PM 14.0 °F 5.1 °F 6.8 °F 73% 30.00 in 10.0 mi East 5.8 mph - N/A   Overcast
12:54 PM 14.0 °F 5.1 °F 6.8 °F 73% 29.99 in 10.0 mi ESE 5.8 mph - N/A   Overcast
1:14 PM 14.0 °F 6.5 °F 6.8 °F 73% 29.98 in 10.0 mi East 4.6 mph - N/A   Overcast
1:33 PM 14.0 °F 5.1 °F 6.8 °F 73% 29.97 in 10.0 mi East 5.8 mph - N/A   Mostly Cloudy
1:54 PM 14.0 °F 3.9 °F 6.8 °F 73% 29.96 in 10.0 mi East 6.9 mph - N/A   Scattered Clouds
2:13 PM 14.0 °F 3.9 °F 6.8 °F 73% 29.95 in 10.0 mi ESE 6.9 mph - N/A   Scattered Clouds
2:34 PM 14.0 °F 3.9 °F 6.8 °F 73% 29.94 in 10.0 mi East 6.9 mph - N/A   Clear
2:54 PM 12.2 °F 0.7 °F 6.8 °F 79% 29.94 in 10.0 mi East 8.1 mph - N/A   Clear
3:14 PM 12.2 °F 2.9 °F 6.8 °F 79% 29.94 in 10.0 mi East 5.8 mph - N/A   Clear
3:34 PM 12.2 °F 4.3 °F 6.8 °F 79% 29.95 in 5.0 mi ENE 4.6 mph - N/A Snow Light Snow
3:54 PM 14.0 °F 5.1 °F 6.8 °F 73% 29.94 in 10.0 mi ENE 5.8 mph - N/A   Clear
4:14 PM 12.2 °F 0.7 °F 6.8 °F 79% 29.93 in 10.0 mi ENE 8.1 mph - N/A   Clear
4:33 PM 12.2 °F 6.1 °F 6.8 °F 79% 29.93 in 10.0 mi ENE 3.5 mph - N/A   Scattered Clouds
4:54 PM 12.2 °F 1.7 °F 6.8 °F 79% 29.93 in 5.0 mi East 6.9 mph - N/A Snow Light Snow
5:13 PM 12.2 °F 1.7 °F 6.8 °F 79% 29.93 in 4.0 mi East 6.9 mph - N/A Snow Light Snow
5:34 PM 12.2 °F 4.3 °F 6.8 °F 79% 29.93 in 4.0 mi ENE 4.6 mph - N/A Snow Light Snow
5:53 PM 12.2 °F 0.7 °F 8.6 °F 85% 29.93 in 2.0 mi East 8.1 mph - N/A Snow Light Snow
6:14 PM 12.2 °F 2.9 °F 8.6 °F 85% 29.94 in 4.0 mi NE 5.8 mph - N/A Snow Light Snow
6:34 PM 12.2 °F 0.7 °F 8.6 °F 85% 29.94 in 10.0 mi NE 8.1 mph - N/A   Overcast
6:53 PM 12.2 °F 0.7 °F 6.8 °F 79% 29.93 in 7.0 mi ENE 8.1 mph - N/A Snow Light Snow
7:14 PM 12.2 °F -1.0 °F 6.8 °F 79% 29.94 in 7.0 mi NE 10.4 mph - N/A Snow Light Snow
7:53 PM 10.4 °F -4.1 °F 6.8 °F 85% 29.95 in 7.0 mi NNE 11.5 mph - N/A Snow Light Snow
8:14 PM 10.4 °F -2.4 °F 6.8 °F 85% 29.95 in 3.0 mi NNE 9.2 mph - N/A Snow Light Snow
8:34 PM 10.4 °F -3.3 °F 6.8 °F 85% 29.95 in 5.0 mi NNE 10.4 mph - N/A   Haze
8:53 PM 10.4 °F -1.5 °F 6.8 °F 85% 29.94 in 10.0 mi NE 8.1 mph - N/A   Overcast
9:14 PM 10.4 °F -2.4 °F 6.8 °F 85% 29.95 in 10.0 mi NE 9.2 mph - N/A Snow Light Snow
9:34 PM 10.4 °F -3.3 °F 6.8 °F 85% 29.94 in 10.0 mi NNE 10.4 mph - N/A   Overcast
9:53 PM 10.4 °F -2.4 °F 6.8 °F 85% 29.95 in 7.0 mi NE 9.2 mph - N/A   Overcast
10:14 PM 10.4 °F -1.5 °F 6.8 °F 85% 29.96 in 7.0 mi NNE 8.1 mph - N/A Snow Light Snow
10:33 PM 10.4 °F -2.4 °F 5.0 °F 79% 29.96 in 10.0 mi NNE 9.2 mph - N/A   Overcast
10:54 PM 10.4 °F -1.5 °F 5.0 °F 79% 29.96 in 10.0 mi NNE 8.1 mph - N/A   Overcast
11:14 PM 10.4 °F -3.3 °F 5.0 °F 79% 29.97 in 10.0 mi NNE 10.4 mph - N/A   Overcast
11:33 PM 8.6 °F -7.0 °F 5.0 °F 85% 29.97 in 10.0 mi North 12.7 mph - N/A   Overcast
11:54 PM 8.6 °F -7.0 °F 3.2 °F 79% 29.97 in 10.0 mi North 12.7 mph - N/A   Overcast